Location: Skalnate Pleso
(49.1889°N, 20.2450°E)
Time: 22:41:20
(UTC+01:00)

Cosmos 2228 Rocket - Pass Details

Date: 19 November 2019
Orbit: 619 x 651 km, 82.5° (Epoch: 14 December)

Event Time Altitude Azimuth Distance (km) Brightness Sun altitude
Rises 05:45:11 0° 345° (NNW) 2,983 6.3 -11.3°
Reaches altitude 10° 05:47:30 10° 340° (NNW) 2,069 5.4 -10.9°
Maximum altitude 05:51:55 48° 267° (W) 859 3.4 -10.2°
Drops below altitude 10° 05:56:18 10° 193° (SSW) 2,052 5.8 -9.5°
Sets 05:58:35 0° 188° (S) 2,956 6.7 -9.2°
